Voltar ao catálogo

CZ-2D R/B

AtivoSSO
NORAD 44548·ROCKET BODY·🇨🇳 China

Lançado Sep 25, 2019 de Jiuquan Satellite Launch Center

Loading…

Próximas Passagens (próximas 24 horas)

TLE

AtualizadoSource: Space-Track

Época: Sep 14, 2026, 14:23 UTC

1 44548U 19063B   26257.59946488  .00000129  00000-0  53693-4 0  9991
2 44548  98.3604 211.5105 0005982 241.4242 118.6346 14.40858245366437

Acompanhe CZ-2D R/B em tempo real com AllMySat

Download on the App Store